Time,TemperatureF,DewpointF,PressureIn,WindDirection,WindDirectionDegrees,WindSpeedMPH,WindSpeedGustMPH,Humidity,HourlyPrecipIn,Conditions,Clouds,dailyrainin,SoftwareType,DateUTC
2013-01-27 00:09:00,25.3,20.0,30.28,ENE,68,0.0,0.0,80,0.00,CLR,,0.00,WeatherDisplay:10.37,2013-01-27 05:09:00,
2013-01-27 00:19:00,25.3,20.3,30.28,ENE,68,0.0,0.0,81,0.00,CLR,,0.00,WeatherDisplay:10.37,2013-01-27 05:19:00,
2013-01-27 00:29:00,25.3,20.6,30.28,ENE,68,0.0,0.0,82,0.00,CLR,,0.00,WeatherDisplay:10.37,2013-01-27 05:29:00,
2013-01-27 00:39:00,25.3,21.5,30.28,ENE,68,0.0,0.0,85,0.00,CLR,,0.00,WeatherDisplay:10.37,2013-01-27 05:39:00,
2013-01-27 00:49:00,25.3,21.5,30.28,ENE,68,0.0,0.0,85,0.00,CLR,,0.00,WeatherDisplay:10.37,2013-01-27 05:49:00,
2013-01-27 00:59:00,25.3,21.5,30.28,ENE,68,0.0,0.0,85,0.00,CLR,,0.00,WeatherDisplay:10.37,2013-01-27 05:59:00,
2013-01-27 01:09:00,25.3,21.5,30.28,ENE,68,0.0,0.0,85,0.00,CLR,,0.00,WeatherDisplay:10.37,2013-01-27 06:09:00,
2013-01-27 01:19:00,25.3,20.9,30.28,ENE,68,0.0,0.0,83,0.00,CLR,,0.00,WeatherDisplay:10.37,2013-01-27 06:19:00,
2013-01-27 01:29:00,25.0,20.6,30.28,ENE,68,0.0,0.0,83,0.00,CLR,,0.00,WeatherDisplay:10.37,2013-01-27 06:29:00,
2013-01-27 01:39:00,25.0,20.5,30.28,ENE,68,0.0,0.0,83,0.00,CLR,,0.00,WeatherDisplay:10.37,2013-01-27 06:39:00,
2013-01-27 01:49:00,24.8,20.4,30.28,ENE,68,0.0,0.0,83,0.00,CLR,,0.00,WeatherDisplay:10.37,2013-01-27 06:49:00,
2013-01-27 01:59:00,24.6,19.9,30.28,ENE,68,0.0,0.0,82,0.00,CLR,,0.00,WeatherDisplay:10.37,2013-01-27 06:59:00,
2013-01-27 02:19:00,24.4,19.7,30.28,ENE,68,0.0,0.0,82,0.00,CLR,,0.00,WeatherDisplay:10.37,2013-01-27 07:19:00,
2013-01-27 02:29:00,24.3,19.6,30.28,ENE,68,0.0,0.0,82,0.00,CLR,,0.00,WeatherDisplay:10.37,2013-01-27 07:29:00,
2013-01-27 02:39:00,24.3,19.8,30.28,ENE,68,0.0,0.0,83,0.00,CLR,,0.00,WeatherDisplay:10.37,2013-01-27 07:39:00,
2013-01-27 02:49:00,24.3,19.8,30.28,ENE,68,0.0,0.0,83,0.00,CLR,,0.00,WeatherDisplay:10.37,2013-01-27 07:49:00,
2013-01-27 02:59:00,24.1,19.7,30.28,ENE,68,0.0,0.0,83,0.00,CLR,,0.00,WeatherDisplay:10.37,2013-01-27 07:59:00,
2013-01-27 03:09:00,23.9,19.8,30.28,ENE,68,0.0,0.0,84,0.00,CLR,,0.00,WeatherDisplay:10.37,2013-01-27 08:09:00,
2013-01-27 03:19:00,23.9,20.0,30.28,ENE,68,0.0,0.0,85,0.00,CLR,,0.00,WeatherDisplay:10.37,2013-01-27 08:19:00,
2013-01-27 03:29:00,23.7,19.6,30.28,ENE,68,0.0,0.0,84,0.00,CLR,,0.00,WeatherDisplay:10.37,2013-01-27 08:29:00,
2013-01-27 03:39:00,23.9,20.0,30.28,ENE,68,0.0,0.0,85,0.00,CLR,,0.00,WeatherDisplay:10.37,2013-01-27 08:39:00,
2013-01-27 03:49:00,24.1,20.8,30.25,ENE,68,0.0,0.0,87,0.00,CLR,,0.00,WeatherDisplay:10.37,2013-01-27 08:49:00,
2013-01-27 03:59:00,23.9,20.6,30.25,ENE,68,0.0,0.0,87,0.00,CLR,,0.00,WeatherDisplay:10.37,2013-01-27 08:59:00,
2013-01-27 04:09:00,23.5,20.0,30.25,ENE,68,0.0,0.0,86,0.00,CLR,,0.00,WeatherDisplay:10.37,2013-01-27 09:09:00,
2013-01-27 04:19:00,23.5,19.7,30.25,ENE,68,0.0,0.0,85,0.00,CLR,,0.00,WeatherDisplay:10.37,2013-01-27 09:19:00,
2013-01-27 04:29:00,23.6,19.8,30.25,ENE,68,0.0,0.0,85,0.00,CLR,,0.00,WeatherDisplay:10.37,2013-01-27 09:29:00,
2013-01-27 04:39:00,23.5,20.0,30.25,ENE,68,0.0,0.0,86,0.00,CLR,,0.00,WeatherDisplay:10.37,2013-01-27 09:39:00,
2013-01-27 04:49:00,23.2,19.1,30.25,ENE,68,0.0,0.0,84,0.00,CLR,,0.00,WeatherDisplay:10.37,2013-01-27 09:49:00,
2013-01-27 04:59:00,23.0,18.9,30.25,ENE,68,0.0,0.0,84,0.00,CLR,,0.00,WeatherDisplay:10.37,2013-01-27 09:59:00,
2013-01-27 05:09:00,23.4,19.5,30.25,ENE,68,0.0,0.0,85,0.00,CLR,,0.00,WeatherDisplay:10.37,2013-01-27 10:09:00,
2013-01-27 05:19:00,23.5,20.2,30.25,ENE,68,0.0,0.0,87,0.00,CLR,,0.00,WeatherDisplay:10.37,2013-01-27 10:19:00,
2013-01-27 05:29:00,23.5,20.2,30.25,ENE,68,0.0,0.0,87,0.00,CLR,,0.00,WeatherDisplay:10.37,2013-01-27 10:29:00,
2013-01-27 05:39:00,23.5,20.2,30.25,ENE,68,0.0,0.0,87,0.00,CLR,,0.00,WeatherDisplay:10.37,2013-01-27 10:39:00,
2013-01-27 05:49:00,23.5,20.2,30.25,ENE,68,0.0,0.0,87,0.00,CLR,,0.00,WeatherDisplay:10.37,2013-01-27 10:49:00,
2013-01-27 05:59:00,23.7,20.4,30.25,ENE,68,0.0,0.0,87,0.00,CLR,,0.00,WeatherDisplay:10.37,2013-01-27 10:59:00,
2013-01-27 06:09:00,23.9,20.9,30.28,ENE,68,0.0,0.0,88,0.00,CLR,,0.00,WeatherDisplay:10.37,2013-01-27 11:09:00,
2013-01-27 06:19:00,23.7,20.4,30.28,ENE,68,0.0,0.0,87,0.00,CLR,,0.00,WeatherDisplay:10.37,2013-01-27 11:19:00,
2013-01-27 06:29:00,24.1,20.8,30.28,ENE,68,0.0,0.0,87,0.00,CLR,,0.00,WeatherDisplay:10.37,2013-01-27 11:29:00,
2013-01-27 06:39:00,24.1,20.8,30.28,ENE,68,0.0,0.0,87,0.00,CLR,,0.00,WeatherDisplay:10.37,2013-01-27 11:39:00,
2013-01-27 06:49:00,23.9,20.3,30.28,ENE,68,0.0,0.0,86,0.00,CLR,,0.00,WeatherDisplay:10.37,2013-01-27 11:49:00,
2013-01-27 06:59:00,23.8,19.9,30.28,ENE,68,0.0,0.0,85,0.00,CLR,,0.00,WeatherDisplay:10.37,2013-01-27 11:59:00,
2013-01-27 07:09:00,24.3,20.9,30.28,ENE,68,0.0,0.0,87,0.00,CLR,,0.00,WeatherDisplay:10.37,2013-01-27 12:09:00,
2013-01-27 07:19:00,24.3,20.9,30.31,ENE,68,0.0,0.0,87,0.00,CLR,,0.00,WeatherDisplay:10.37,2013-01-27 12:19:00,
2013-01-27 07:29:00,24.3,20.7,30.31,ENE,68,0.0,0.0,86,0.00,CLR,,0.00,WeatherDisplay:10.37,2013-01-27 12:29:00,
2013-01-27 07:39:00,24.1,20.2,30.28,ENE,68,0.0,0.0,85,0.00,CLR,,0.00,WeatherDisplay:10.37,2013-01-27 12:39:00,
2013-01-27 07:49:00,24.4,20.9,30.31,ENE,68,0.0,0.0,86,0.00,CLR,,0.00,WeatherDisplay:10.37,2013-01-27 12:49:00,
2013-01-27 07:59:00,24.8,21.5,30.31,ENE,68,0.0,0.0,87,0.00,CLR,,0.00,WeatherDisplay:10.37,2013-01-27 12:59:00,
2013-01-27 08:09:00,25.1,21.5,30.31,ENE,68,0.0,0.0,86,0.00,CLR,,0.00,WeatherDisplay:10.37,2013-01-27 13:09:00,
2013-01-27 08:19:00,25.5,21.9,30.31,ENE,68,0.0,0.0,86,0.00,CLR,,0.00,WeatherDisplay:10.37,2013-01-27 13:19:00,
2013-01-27 08:29:00,25.9,22.3,30.31,ENE,68,0.0,0.0,86,0.00,CLR,,0.00,WeatherDisplay:10.37,2013-01-27 13:29:00,
2013-01-27 08:39:00,26.4,22.8,30.31,ENE,68,0.0,0.0,86,0.00,CLR,,0.00,WeatherDisplay:10.37,2013-01-27 13:39:00,
2013-01-27 08:49:00,27.0,23.3,30.31,ENE,68,0.0,0.0,86,0.00,CLR,,0.00,WeatherDisplay:10.37,2013-01-27 13:49:00,
2013-01-27 08:59:00,27.5,23.6,30.31,ENE,68,0.0,0.0,85,0.00,CLR,,0.00,WeatherDisplay:10.37,2013-01-27 13:59:00,
2013-01-27 09:09:00,28.2,22.8,30.31,ENE,68,0.0,0.0,80,0.00,CLR,,0.00,WeatherDisplay:10.37,2013-01-27 14:09:00,
2013-01-27 09:19:00,28.8,21.8,30.34,ENE,68,0.0,0.0,75,0.00,CLR,,0.00,WeatherDisplay:10.37,2013-01-27 14:19:00,
2013-01-27 09:29:00,29.3,22.7,30.34,ENE,68,0.0,0.0,76,0.00,CLR,,0.00,WeatherDisplay:10.37,2013-01-27 14:29:00,
2013-01-27 09:39:00,29.8,21.2,30.34,ENE,68,0.0,0.0,70,0.00,CLR,,0.00,WeatherDisplay:10.37,2013-01-27 14:39:00,
2013-01-27 09:49:00,30.5,21.5,30.34,ENE,68,0.0,0.0,69,0.00,CLR,,0.00,WeatherDisplay:10.37,2013-01-27 14:49:00,
2013-01-27 09:59:00,31.1,21.1,30.34,ENE,68,0.0,0.0,66,0.00,CLR,,0.00,WeatherDisplay:10.37,2013-01-27 14:59:00,
2013-01-27 10:09:00,32.2,23.1,30.34,ENE,68,0.0,0.0,69,0.00,CLR,,0.00,WeatherDisplay:10.37,2013-01-27 15:09:00,
2013-01-27 10:19:00,32.7,23.7,30.34,ENE,68,0.0,0.0,69,0.00,CLR,,0.00,WeatherDisplay:10.37,2013-01-27 15:19:00,
2013-01-27 10:29:00,32.7,23.0,30.34,ENE,68,0.0,0.0,67,0.00,CLR,,0.00,WeatherDisplay:10.37,2013-01-27 15:29:00,
2013-01-27 10:39:00,33.0,23.2,30.34,ENE,68,0.0,0.0,67,0.00,CLR,,0.00,WeatherDisplay:10.37,2013-01-27 15:39:00,
2013-01-27 10:49:00,33.3,23.1,30.34,ENE,68,0.0,0.0,66,0.00,CLR,,0.00,WeatherDisplay:10.37,2013-01-27 15:49:00,
2013-01-27 10:59:00,33.6,22.7,30.34,ENE,68,0.0,0.0,64,0.00,CLR,,0.00,WeatherDisplay:10.37,2013-01-27 15:59:00,
2013-01-27 11:09:00,33.8,23.7,30.34,ENE,68,0.0,0.0,66,0.00,CLR,,0.00,WeatherDisplay:10.37,2013-01-27 16:09:00,
2013-01-27 11:19:00,34.2,23.2,30.37,ENE,68,0.0,0.0,64,0.00,CLR,,0.00,WeatherDisplay:10.37,2013-01-27 16:19:00,
2013-01-27 11:29:00,34.7,25.2,30.37,ENE,68,0.0,0.0,68,0.00,CLR,,0.00,WeatherDisplay:10.37,2013-01-27 16:29:00,
2013-01-27 11:39:00,35.1,24.1,30.37,ENE,68,0.0,0.0,64,0.00,CLR,,0.00,WeatherDisplay:10.37,2013-01-27 16:39:00,
2013-01-27 11:49:00,35.4,25.2,30.37,ENE,68,0.0,0.0,66,0.00,CLR,,0.00,WeatherDisplay:10.37,2013-01-27 16:49:00,
2013-01-27 11:59:00,35.9,26.7,30.37,ENE,68,0.0,0.0,69,0.00,CLR,,0.00,WeatherDisplay:10.37,2013-01-27 16:59:00,
2013-01-27 12:09:00,36.2,25.2,30.37,ENE,68,0.0,0.0,64,0.00,CLR,,0.00,WeatherDisplay:10.37,2013-01-27 17:09:00,
2013-01-27 12:19:00,36.8,27.9,30.37,ENE,68,0.0,0.0,70,0.00,CLR,,0.00,WeatherDisplay:10.37,2013-01-27 17:19:00,
2013-01-27 12:29:00,37.4,27.4,30.37,ENE,68,0.0,0.0,67,0.00,CLR,,0.00,WeatherDisplay:10.37,2013-01-27 17:29:00,
2013-01-27 12:39:00,38.1,25.4,30.37,ENE,68,0.0,0.0,60,0.00,CLR,,0.00,WeatherDisplay:10.37,2013-01-27 17:39:00,
2013-01-27 12:49:00,38.8,26.0,30.37,ENE,68,0.0,0.0,60,0.00,CLR,,0.00,WeatherDisplay:10.37,2013-01-27 17:49:00,
2013-01-27 12:59:00,38.8,25.3,30.37,ENE,68,0.0,0.0,58,0.00,CLR,,0.00,WeatherDisplay:10.37,2013-01-27 17:59:00,
2013-01-27 13:09:00,39.2,23.9,30.37,ENE,68,0.0,0.0,54,0.00,CLR,,0.00,WeatherDisplay:10.37,2013-01-27 18:09:00,
2013-01-27 13:19:00,39.7,24.4,30.37,ENE,68,0.0,0.0,54,0.00,CLR,,0.00,WeatherDisplay:10.37,2013-01-27 18:19:00,
2013-01-27 13:29:00,40.5,25.5,30.37,ENE,68,0.0,0.0,55,0.00,CLR,,0.00,WeatherDisplay:10.37,2013-01-27 18:29:00,
2013-01-27 13:39:00,41.2,24.9,30.37,ENE,68,0.0,0.0,52,0.00,CLR,,0.00,WeatherDisplay:10.37,2013-01-27 18:39:00,
2013-01-27 13:49:00,42.2,24.9,30.37,ENE,68,0.0,0.0,50,0.00,CLR,,0.00,WeatherDisplay:10.37,2013-01-27 18:49:00,
2013-01-27 13:59:00,42.7,24.8,30.37,ENE,68,0.0,0.0,49,0.00,CLR,,0.00,WeatherDisplay:10.37,2013-01-27 18:59:00,
2013-01-27 14:09:00,43.9,26.0,30.37,ENE,68,0.0,0.0,49,0.00,CLR,,0.00,WeatherDisplay:10.37,2013-01-27 19:09:00,
2013-01-27 14:19:00,43.5,25.1,30.37,ENE,68,0.0,0.0,48,0.00,CLR,,0.00,WeatherDisplay:10.37,2013-01-27 19:19:00,
2013-01-27 14:29:00,43.0,22.5,30.37,ENE,68,0.0,0.0,44,0.00,CLR,,0.00,WeatherDisplay:10.37,2013-01-27 19:29:00,
2013-01-27 14:39:00,43.3,23.4,30.37,ENE,68,0.0,0.0,45,0.00,CLR,,0.00,WeatherDisplay:10.37,2013-01-27 19:39:00,
2013-01-27 14:49:00,43.3,23.4,30.37,ENE,68,0.0,0.0,45,0.00,CLR,,0.00,WeatherDisplay:10.37,2013-01-27 19:49:00,
2013-01-27 14:59:00,43.2,22.7,30.37,ENE,68,0.0,0.0,44,0.00,CLR,,0.00,WeatherDisplay:10.37,2013-01-27 19:59:00,
2013-01-27 15:09:00,42.8,22.9,30.37,ENE,68,0.0,0.0,45,0.00,CLR,,0.00,WeatherDisplay:10.37,2013-01-27 20:09:00,
2013-01-27 15:19:00,42.8,22.4,30.37,ENE,68,0.0,0.0,44,0.00,CLR,,0.00,WeatherDisplay:10.37,2013-01-27 20:19:00,
2013-01-27 15:29:00,42.8,21.8,30.37,ENE,68,0.0,0.0,43,0.00,CLR,,0.00,WeatherDisplay:10.37,2013-01-27 20:29:00,
2013-01-27 15:39:00,43.0,22.5,30.34,ENE,68,0.0,0.0,44,0.00,CLR,,0.00,WeatherDisplay:10.37,2013-01-27 20:39:00,
2013-01-27 15:49:00,43.0,22.5,30.34,ENE,68,0.0,0.0,44,0.00,CLR,,0.00,WeatherDisplay:10.37,2013-01-27 20:49:00,
2013-01-27 15:59:00,42.8,23.4,30.34,ENE,68,0.0,0.0,46,0.00,CLR,,0.00,WeatherDisplay:10.37,2013-01-27 20:59:00,
2013-01-27 16:09:00,42.8,23.4,30.34,ENE,68,0.0,0.0,46,0.00,CLR,,0.00,WeatherDisplay:10.37,2013-01-27 21:09:00,
2013-01-27 16:19:00,42.8,22.9,30.31,ENE,68,0.0,0.0,45,0.00,CLR,,0.00,WeatherDisplay:10.37,2013-01-27 21:19:00,
2013-01-27 16:29:00,42.8,23.4,30.31,ENE,68,0.0,0.0,46,0.00,CLR,,0.00,WeatherDisplay:10.37,2013-01-27 21:29:00,
2013-01-27 16:39:00,42.4,23.1,30.31,ENE,68,0.0,0.0,46,0.00,CLR,,0.00,WeatherDisplay:10.37,2013-01-27 21:39:00,
2013-01-27 16:49:00,42.3,22.9,30.31,ENE,68,0.0,0.0,46,0.00,CLR,,0.00,WeatherDisplay:10.37,2013-01-27 21:49:00,
2013-01-27 16:59:00,41.7,22.9,30.31,ENE,68,0.0,0.0,47,0.00,CLR,,0.00,WeatherDisplay:10.37,2013-01-27 21:59:00,
2013-01-27 17:09:00,41.5,23.3,30.31,ENE,68,0.0,0.0,48,0.00,CLR,,0.00,WeatherDisplay:10.37,2013-01-27 22:09:00,
2013-01-27 17:19:00,41.2,23.4,30.31,ENE,68,0.0,0.0,49,0.00,CLR,,0.00,WeatherDisplay:10.37,2013-01-27 22:19:00,
2013-01-27 17:29:00,41.2,23.0,30.31,ENE,68,0.0,0.0,48,0.00,CLR,,0.00,WeatherDisplay:10.37,2013-01-27 22:29:00,
2013-01-27 17:39:00,40.8,23.1,30.31,ENE,68,0.0,0.0,49,0.00,CLR,,0.00,WeatherDisplay:10.37,2013-01-27 22:39:00,
2013-01-27 17:49:00,40.5,22.8,30.31,ENE,68,0.0,0.0,49,0.00,CLR,,0.00,WeatherDisplay:10.37,2013-01-27 22:49:00,
2013-01-27 17:59:00,39.9,22.3,30.31,ENE,68,0.0,0.0,49,0.00,CLR,,0.00,WeatherDisplay:10.37,2013-01-27 22:59:00,
2013-01-27 18:09:00,39.7,21.1,30.31,ENE,68,0.0,0.0,47,0.00,CLR,,0.00,WeatherDisplay:10.37,2013-01-27 23:09:00,
2013-01-27 18:19:00,39.6,20.5,30.31,ENE,68,0.0,0.0,46,0.00,CLR,,0.00,WeatherDisplay:10.37,2013-01-27 23:19:00,
2013-01-27 18:29:00,39.4,19.3,30.31,ENE,68,0.0,0.0,44,0.00,CLR,,0.00,WeatherDisplay:10.37,2013-01-27 23:29:00,
2013-01-27 18:39:00,39.4,18.2,30.28,ENE,68,0.0,0.0,42,0.00,CLR,,0.00,WeatherDisplay:10.37,2013-01-27 23:39:00,
2013-01-27 18:49:00,39.4,18.2,30.31,ENE,68,0.0,0.0,42,0.00,CLR,,0.00,WeatherDisplay:10.37,2013-01-27 23:49:00,
2013-01-27 18:59:00,39.4,18.2,30.31,ENE,68,0.0,0.0,42,0.00,CLR,,0.00,WeatherDisplay:10.37,2013-01-27 23:59:00,
2013-01-27 19:09:00,39.2,18.0,30.28,ENE,68,0.0,0.0,42,0.00,CLR,,0.00,WeatherDisplay:10.37,2013-01-28 00:09:00,
2013-01-27 19:19:00,39.4,18.2,30.31,ENE,68,0.0,0.0,42,0.00,CLR,,0.00,WeatherDisplay:10.37,2013-01-28 00:19:00,
2013-01-27 19:29:00,39.4,18.2,30.31,ENE,68,0.0,0.0,42,0.00,CLR,,0.00,WeatherDisplay:10.37,2013-01-28 00:29:00,
2013-01-27 19:39:00,39.4,18.2,30.28,ENE,68,0.0,0.0,42,0.00,CLR,,0.00,WeatherDisplay:10.37,2013-01-28 00:39:00,
2013-01-27 19:49:00,39.2,18.5,30.31,ENE,68,0.0,0.0,43,0.00,CLR,,0.00,WeatherDisplay:10.37,2013-01-28 00:49:00,
2013-01-27 19:59:00,39.0,18.4,30.31,ENE,68,0.0,0.0,43,0.00,CLR,,0.00,WeatherDisplay:10.37,2013-01-28 00:59:00,
2013-01-27 20:09:00,39.0,18.4,30.31,ENE,68,0.0,0.0,43,0.00,CLR,,0.00,WeatherDisplay:10.37,2013-01-28 01:09:00,
2013-01-27 20:19:00,38.7,18.6,30.28,ENE,68,0.0,0.0,44,0.00,CLR,,0.00,WeatherDisplay:10.37,2013-01-28 01:19:00,
2013-01-27 20:29:00,38.5,18.4,30.28,ENE,68,0.0,0.0,44,0.00,CLR,,0.00,WeatherDisplay:10.37,2013-01-28 01:29:00,
2013-01-27 20:39:00,38.7,18.6,30.31,ENE,68,0.0,0.0,44,0.00,CLR,,0.00,WeatherDisplay:10.37,2013-01-28 01:39:00,
2013-01-27 20:49:00,38.7,18.6,30.31,ENE,68,0.0,0.0,44,0.00,CLR,,0.00,WeatherDisplay:10.37,2013-01-28 01:49:00,
2013-01-27 20:59:00,38.5,18.4,30.31,ENE,68,0.0,0.0,44,0.00,CLR,,0.00,WeatherDisplay:10.37,2013-01-28 01:59:00,
2013-01-27 21:09:00,38.1,19.1,30.31,ENE,68,0.0,0.0,46,0.00,CLR,,0.00,WeatherDisplay:10.37,2013-01-28 02:09:00,
2013-01-27 21:19:00,37.9,19.0,30.28,ENE,68,0.0,0.0,46,0.00,CLR,,0.00,WeatherDisplay:10.37,2013-01-28 02:19:00,
2013-01-27 21:29:00,37.6,19.1,30.28,ENE,68,0.0,0.0,47,0.00,CLR,,0.00,WeatherDisplay:10.37,2013-01-28 02:29:00,
2013-01-27 21:39:00,37.4,19.5,30.28,ENE,68,0.0,0.0,48,0.00,CLR,,0.00,WeatherDisplay:10.37,2013-01-28 02:39:00,
2013-01-27 21:49:00,37.0,20.6,30.28,ENE,68,0.0,0.0,51,0.00,CLR,,0.00,WeatherDisplay:10.37,2013-01-28 02:49:00,
2013-01-27 21:59:00,36.7,22.4,30.28,ENE,68,0.0,0.0,56,0.00,CLR,,0.00,WeatherDisplay:10.37,2013-01-28 02:59:00,
2013-01-27 22:09:00,36.3,24.5,30.28,ENE,68,0.0,0.0,62,0.00,CLR,,0.00,WeatherDisplay:10.37,2013-01-28 03:09:00,
2013-01-27 22:19:00,36.0,25.0,30.28,ENE,68,0.0,0.0,64,0.00,CLR,,0.00,WeatherDisplay:10.37,2013-01-28 03:19:00,
2013-01-27 22:29:00,36.0,23.8,30.28,ENE,68,0.0,0.0,61,0.00,CLR,,0.00,WeatherDisplay:10.37,2013-01-28 03:29:00,
2013-01-27 22:39:00,36.0,26.1,30.28,ENE,68,0.0,0.0,67,0.00,CLR,,0.00,WeatherDisplay:10.37,2013-01-28 03:39:00,
2013-01-27 22:49:00,36.0,26.1,30.28,ENE,68,0.0,0.0,67,0.00,CLR,,0.00,WeatherDisplay:10.37,2013-01-28 03:49:00,
2013-01-27 22:59:00,35.8,26.9,30.28,ENE,68,0.0,0.0,70,0.00,CLR,,0.00,WeatherDisplay:10.37,2013-01-28 03:59:00,
2013-01-27 23:09:00,35.8,26.9,30.28,ENE,68,0.0,0.0,70,0.00,CLR,,0.00,WeatherDisplay:10.37,2013-01-28 04:09:00,
2013-01-27 23:19:00,35.8,26.2,30.28,ENE,68,0.0,0.0,68,0.00,CLR,,0.00,WeatherDisplay:10.37,2013-01-28 04:19:00,
2013-01-27 23:29:00,35.8,25.9,30.28,ENE,68,0.0,0.0,67,0.00,CLR,,0.00,WeatherDisplay:10.37,2013-01-28 04:29:00,
2013-01-27 23:39:00,35.8,25.5,30.25,ENE,68,0.0,0.0,66,0.00,CLR,,0.00,WeatherDisplay:10.37,2013-01-28 04:39:00,
2013-01-27 23:49:00,35.8,26.2,30.25,ENE,68,0.0,0.0,68,0.00,CLR,,0.00,WeatherDisplay:10.37,2013-01-28 04:49:00,
2013-01-27 23:59:00,35.8,25.5,30.25,ENE,68,0.0,0.0,66,0.00,CLR,,0.00,WeatherDisplay:10.37,2013-01-28 04:59:00,